Date String (YYYY-MM-DD hh:mm:ss) UTC,Instrument flags,absolute air pressure of the measurement (hPa),sample flow rate (lpm),inlet stack bypass flow (lpm),air temperature of the measurement (°C),ambient temperature measured by the external sensor (°C),aerosol sample conditioner tube jacket temperature (°C),OPC LED temperature (°C),internal box temperature (°C),relative humidity of the measurement (%),span deviation,mass concentration of particles derived from Lorenz-Mie calculation of OPC scattering (μg/m³),mass concentration of particles derived from Lorenz-Mie calculation of OPC scattering (μg/m³),mass concentration of particles derived from Lorenz-Mie calculation of OPC scattering (μg/m³)
DateTimeUTC,F1_M11,P_M11,Q1_M11,Q2_M11,T1_M11,T2_M11,T3_M11,T4_M11,T5_M11,U1_M11,ZSPAN_M11,X0_M11,X2_M11,X1_M11
2024-05-26 11:00:00,SystemResetWarning,0823.1,5.00,000.00,027.4,026.6,000.0,035.7,029.2,015.8,0000.0,0002.18,0000.27,0000.10
2024-05-26 11:01:00,SystemResetWarning,0823.1,5.01,000.00,027.4,026.6,000.0,035.7,029.2,015.9,0000.0,0002.17,0000.27,0000.10
2024-05-26 11:02:00,SystemResetWarning,0823.1,5.00,000.00,027.4,026.6,000.0,035.7,029.2,015.9,0000.0,0002.19,0000.28,0000.10
2024-05-26 11:03:00,SystemResetWarning,0823.1,5.00,000.00,027.4,026.7,000.0,035.7,029.2,015.7,0000.0,0002.35,0000.30,0000.09
2024-05-26 11:04:00,SystemResetWarning,0823.0,5.00,000.00,027.4,026.7,000.0,035.7,029.2,015.6,0000.0,0001.73,0000.27,0000.09
2024-05-26 11:05:00,SystemResetWarning,0823.1,5.00,000.00,027.4,026.7,000.0,035.7,029.2,015.5,0000.0,0000.83,0000.25,0000.10
2024-05-26 11:06:00,SystemResetWarning,0823.1,4.99,000.00,027.4,026.7,000.0,035.7,029.2,015.0,0000.0,0000.69,0000.24,0000.09
2024-05-26 11:07:00,SystemResetWarning,0823.2,4.99,000.00,027.5,026.7,000.0,035.7,029.2,015.0,0000.0,0000.62,0000.23,0000.09
2024-05-26 11:08:00,SystemResetWarning,0823.1,5.00,000.00,027.5,026.7,000.0,035.7,029.2,015.1,0000.0,0000.59,0000.22,0000.10
2024-05-26 11:09:00,SystemResetWarning,0823.1,5.00,000.00,027.5,026.7,000.0,035.7,029.2,014.5,0000.0,0000.60,0000.23,0000.10
2024-05-26 11:10:00,SystemResetWarning,0823.2,5.00,000.00,027.5,026.7,000.0,035.7,029.2,014.5,0000.0,0000.59,0000.23,0000.11
2024-05-26 11:11:00,SystemResetWarning,0823.1,5.01,000.00,027.5,026.6,000.0,035.7,029.2,014.5,0000.0,0000.58,0000.23,0000.11
2024-05-26 11:12:00,SystemResetWarning,0823.1,5.00,000.00,027.5,026.6,000.0,035.7,029.2,014.4,0000.0,0000.62,0000.25,0000.12
2024-05-26 11:13:00,SystemResetWarning,0823.1,5.00,000.00,027.5,026.6,000.0,035.7,029.2,014.2,0000.0,0000.61,0000.25,0000.12
2024-05-26 11:14:00,SystemResetWarning,0823.1,4.99,000.00,027.5,026.6,000.0,035.7,029.2,014.2,0000.0,0000.47,0000.23,0000.13
2024-05-26 11:15:00,SystemResetWarning,0823.1,4.99,000.00,027.4,026.6,000.0,035.7,029.2,014.3,0000.0,0000.49,0000.25,0000.14
2024-05-26 11:16:00,SystemResetWarning,0823.2,5.00,000.00,027.5,026.6,000.0,035.7,029.2,014.4,0000.0,0000.51,0000.26,0000.14
2024-05-26 11:17:00,SystemResetWarning,0823.2,5.01,000.00,027.5,026.6,000.0,035.7,029.2,014.6,0000.0,0000.64,0000.28,0000.14
2024-05-26 11:18:00,SystemResetWarning,0823.2,5.00,000.00,027.5,026.6,000.0,035.7,029.2,014.5,0000.0,0000.63,0000.27,0000.14
2024-05-26 11:19:00,SystemResetWarning,0823.1,5.00,000.00,027.4,026.6,000.0,035.7,029.2,014.5,0000.0,0000.59,0000.26,0000.14
2024-05-26 11:20:00,SystemResetWarning,0823.2,4.99,000.00,027.4,026.6,000.0,035.7,029.2,014.6,0000.0,0000.54,0000.25,0000.14
2024-05-26 11:21:00,SystemResetWarning,0823.3,4.99,000.00,027.4,026.6,000.0,035.7,029.2,015.0,0000.0,0000.55,0000.26,0000.14
2024-05-26 11:22:00,SystemResetWarning,0823.3,5.00,000.00,027.4,026.6,000.0,035.7,029.2,015.8,0000.0,0000.55,0000.26,0000.13
2024-05-26 11:23:00,SystemResetWarning,0823.3,5.00,000.00,027.4,026.6,000.0,035.7,029.2,015.1,0000.0,0001.12,0000.24,0000.13
2024-05-26 11:24:00,SystemResetWarning,0823.1,5.01,000.00,027.4,026.6,000.0,035.7,029.2,014.6,0000.0,0001.66,0000.27,0000.14
2024-05-26 11:25:00,SystemResetWarning,0823.1,5.00,000.00,027.4,026.6,000.0,035.7,029.1,014.5,0000.0,0001.84,0000.29,0000.15
2024-05-26 11:26:00,SystemResetWarning,0823.2,5.00,000.00,027.4,026.6,000.0,035.7,029.1,015.1,0000.0,0001.86,0000.31,0000.16
2024-05-26 11:27:00,SystemResetWarning,0823.2,5.00,000.00,027.4,026.6,000.0,035.7,029.1,015.0,0000.0,0001.88,0000.32,0000.16
2024-05-26 11:28:00,SystemResetWarning,0823.3,4.99,000.00,027.4,026.5,000.0,035.7,029.1,014.9,0000.0,0001.77,0000.32,0000.17
2024-05-26 11:29:00,SystemResetWarning,0823.4,5.00,000.00,027.4,026.5,000.0,035.7,029.1,015.7,0000.0,0001.86,0000.36,0000.18
2024-05-26 11:30:00,SystemResetWarning,0823.4,5.00,000.00,027.4,026.5,000.0,035.7,029.1,015.6,0000.0,0001.93,0000.38,0000.18
2024-05-26 11:31:00,SystemResetWarning,0823.4,5.00,000.00,027.4,026.5,000.0,035.7,029.1,015.3,0000.0,0001.93,0000.38,0000.18
2024-05-26 11:32:00,SystemResetWarning,0823.4,5.01,000.00,027.4,026.5,000.0,035.7,029.1,014.8,0000.0,0001.91,0000.36,0000.17
2024-05-26 11:33:00,SystemResetWarning,0823.5,5.00,000.00,027.4,026.5,000.0,035.7,029.1,015.7,0000.0,0001.97,0000.38,0000.17
2024-05-26 11:34:00,SystemResetWarning,0823.5,5.00,000.00,027.4,026.5,000.0,035.7,029.1,015.8,0000.0,0001.68,0000.40,0000.17
2024-05-26 11:35:00,SystemResetWarning,0823.5,5.00,000.00,027.4,026.5,000.0,035.7,029.1,015.5,0000.0,0001.06,0000.38,0000.17
2024-05-26 11:36:00,SystemResetWarning,0823.5,4.99,000.00,027.4,026.5,000.0,035.7,029.1,015.0,0000.0,0000.85,0000.35,0000.16
2024-05-26 11:37:00,SystemResetWarning,0823.5,5.00,000.00,027.4,026.6,000.0,035.7,029.2,015.2,0000.0,0000.81,0000.32,0000.15
2024-05-26 11:38:00,SystemResetWarning,0823.5,5.00,000.00,027.4,026.6,000.0,035.7,029.2,014.6,0000.0,0000.74,0000.30,0000.15
2024-05-26 11:39:00,SystemResetWarning,0823.4,5.00,000.00,027.4,026.6,000.0,035.7,029.2,015.2,0000.0,0000.73,0000.29,0000.15
2024-05-26 11:40:00,SystemResetWarning,0823.5,4.99,000.00,027.4,026.6,000.0,035.7,029.2,015.7,0000.0,0000.62,0000.25,0000.14
2024-05-26 11:41:00,SystemResetWarning,0823.5,5.00,000.00,027.4,026.6,000.0,035.7,029.2,015.6,0000.0,0000.57,0000.23,0000.14
2024-05-26 11:42:00,SystemResetWarning,0823.5,5.00,000.00,027.4,026.6,000.0,035.7,029.2,015.0,0000.0,0000.57,0000.24,0000.13
2024-05-26 11:43:00,SystemResetWarning,0823.3,5.01,000.00,027.4,026.6,000.0,035.7,029.2,015.4,0000.0,0000.59,0000.26,0000.14
2024-05-26 11:44:00,SystemResetWarning,0823.4,5.01,000.00,027.4,026.6,000.0,035.7,029.2,015.0,0000.0,0000.59,0000.27,0000.15
2024-05-26 11:45:00,SystemResetWarning,0823.4,5.01,000.00,027.4,026.6,000.0,035.7,029.1,014.9,0000.0,0000.62,0000.27,0000.16
2024-05-26 11:46:00,SystemResetWarning,0823.5,5.00,000.00,027.4,026.6,000.0,035.7,029.1,014.9,0000.0,0000.80,0000.29,0000.17
2024-05-26 11:47:00,SystemResetWarning,0823.5,5.00,000.00,027.4,026.6,000.0,035.7,029.1,015.3,0000.0,0000.90,0000.32,0000.18
2024-05-26 11:48:00,SystemResetWarning,0823.4,4.99,000.00,027.4,026.6,000.0,035.7,029.2,014.6,0000.0,0002.14,0000.34,0000.19
2024-05-26 11:49:00,SystemResetWarning,0823.5,5.00,000.00,027.4,026.5,000.0,035.7,029.1,014.5,0000.0,0002.30,0000.37,0000.20
2024-05-26 11:50:00,SystemResetWarning,0823.5,4.99,000.00,027.4,026.5,000.0,035.7,029.1,014.4,0000.0,0002.35,0000.39,0000.21
2024-05-26 11:51:00,SystemResetWarning,0823.5,4.99,000.00,027.3,026.5,000.0,035.7,029.1,014.9,0000.0,0002.39,0000.41,0000.23
2024-05-26 11:52:00,SystemResetWarning,0823.6,5.00,000.00,027.3,026.5,000.0,035.7,029.1,014.9,0000.0,0002.39,0000.41,0000.25
2024-05-26 11:53:00,SystemResetWarning,0823.7,5.00,000.00,027.3,026.5,000.0,035.7,029.1,014.8,0000.0,0002.41,0000.42,0000.26
2024-05-26 11:54:00,SystemResetWarning,0823.6,5.00,000.00,027.3,026.5,000.0,035.7,029.1,014.8,0000.0,0002.43,0000.44,0000.27
2024-05-26 11:55:00,SystemResetWarning,0823.6,4.99,000.00,027.3,026.5,000.0,035.7,029.1,014.8,0000.0,0002.49,0000.44,0000.28
2024-05-26 11:56:00,SystemResetWarning,0823.7,5.00,000.00,027.3,026.5,000.0,035.7,029.1,014.7,0000.0,0002.42,0000.46,0000.29
2024-05-26 11:57:00,SystemResetWarning,0823.7,5.00,000.00,027.3,026.5,000.0,035.7,029.1,014.6,0000.0,0002.27,0000.46,0000.29
2024-05-26 11:58:00,SystemResetWarning,0823.7,5.00,000.00,027.3,026.5,000.0,035.7,029.1,014.5,0000.0,0002.70,0000.45,0000.29
2024-05-26 11:59:00,SystemResetWarning,0823.5,5.01,000.00,027.3,026.5,000.0,035.7,029.1,014.7,0000.0,0001.98,0000.44,0000.29
